owner,sensor,date,latitude,longitude,vertical_datum,mass_concentration_of_oxygen_in_sea_water,qcFlag 
SCCF RECON,ioos:station:SCCF:13:1,2009-05-01T00:00:00Z,26.5255,-82.0032,2.49,7.47,1111122 
SCCF RECON,ioos:station:SCCF:13:1,2009-05-01T01:00:00Z,26.5255,-82.0032,2.42,7.15,1111122 
SCCF RECON,ioos:station:SCCF:13:1,2009-05-01T02:00:00Z,26.5255,-82.0032,2.35,6.71,1111122 
SCCF RECON,ioos:station:SCCF:13:1,2009-05-01T03:00:00Z,26.5255,-82.0032,2.273,6.57,1111122 
SCCF RECON,ioos:station:SCCF:13:1,2009-05-01T04:00:00Z,26.5255,-82.0032,2.2,6.52,1111122 
SCCF RECON,ioos:station:SCCF:13:1,2009-05-01T05:00:00Z,26.5255,-82.0032,2.11,6.38,1111122 
SCCF RECON,ioos:station:SCCF:13:1,2009-05-01T06:00:00Z,26.5255,-82.0032,2.048,6.21,1111122 
SCCF RECON,ioos:station:SCCF:13:1,2009-05-01T07:00:00Z,26.5255,-82.0032,2.046,6.05,1111122 
SCCF RECON,ioos:station:SCCF:13:1,2009-05-01T08:00:00Z,26.5255,-82.0032,2.11,5.93,1111122 
SCCF RECON,ioos:station:SCCF:13:1,2009-05-01T09:00:00Z,26.5255,-82.0032,2.17,5.86,1111122 
SCCF RECON,ioos:station:SCCF:13:1,2009-05-01T10:00:00Z,26.5255,-82.0032,2.23,5.74,1111122 
SCCF RECON,ioos:station:SCCF:13:1,2009-05-01T11:00:00Z,26.5255,-82.0032,2.28,5.31,1111122 
SCCF RECON,ioos:station:SCCF:13:1,2009-05-01T12:00:00Z,26.5255,-82.0032,2.33,5.52,1111122 
SCCF RECON,ioos:station:SCCF:13:1,2009-05-01T13:00:00Z,26.5255,-82.0032,2.36,5.75,1111122 
SCCF RECON,ioos:station:SCCF:13:1,2009-05-01T14:00:00Z,26.5255,-82.0032,2.378,5.89,1111122 
SCCF RECON,ioos:station:SCCF:13:1,2009-05-01T15:00:00Z,26.5255,-82.0032,2.375,5.94,1111122 
SCCF RECON,ioos:station:SCCF:13:1,2009-05-01T16:00:00Z,26.5255,-82.0032,2.357,6.2,1111122 
SCCF RECON,ioos:station:SCCF:13:1,2009-05-01T17:00:00Z,26.5255,-82.0032,2.33,6.42,1111122 
SCCF RECON,ioos:station:SCCF:13:1,2009-05-01T18:00:00Z,26.5255,-82.0032,2.329,6.15,1111122 
SCCF RECON,ioos:station:SCCF:13:1,2009-05-01T19:00:00Z,26.5255,-82.0032,2.369,6.54,1111122 
SCCF RECON,ioos:station:SCCF:13:1,2009-05-01T20:00:00Z,26.5255,-82.0032,2.43,6.94,1111122 
SCCF RECON,ioos:station:SCCF:13:1,2009-05-01T21:00:00Z,26.5255,-82.0032,2.46,6.77,1111122 
SCCF RECON,ioos:station:SCCF:13:1,2009-05-01T22:00:00Z,26.5255,-82.0032,2.486,7.08,1111122 
SCCF RECON,ioos:station:SCCF:13:1,2009-05-01T23:00:00Z,26.5255,-82.0032,2.509,6.92,1111122 
SCCF RECON,ioos:station:SCCF:13:1,2009-05-02T00:00:00Z,26.5255,-82.0032,2.51,6.77,1111122 
SCCF RECON,ioos:station:SCCF:13:1,2009-05-02T01:00:00Z,26.5255,-82.0032,2.48,6.68,1111122 
SCCF RECON,ioos:station:SCCF:13:1,2009-05-02T02:00:00Z,26.5255,-82.0032,2.409,6.48,1111122 
SCCF RECON,ioos:station:SCCF:13:1,2009-05-02T03:00:00Z,26.5255,-82.0032,2.33,6.29,1111122 
SCCF RECON,ioos:station:SCCF:13:1,2009-05-02T04:00:00Z,26.5255,-82.0032,2.26,6.32,1111122 
SCCF RECON,ioos:station:SCCF:13:1,2009-05-02T05:00:00Z,26.5255,-82.0032,2.177,6.5,1111122 
SCCF RECON,ioos:station:SCCF:13:1,2009-05-02T06:00:00Z,26.5255,-82.0032,2.09,6.45,1111122 
SCCF RECON,ioos:station:SCCF:13:1,2009-05-02T07:00:00Z,26.5255,-82.0032,2.029,6.21,1111122 
SCCF RECON,ioos:station:SCCF:13:1,2009-05-02T08:00:00Z,26.5255,-82.0032,2.01,6.08,1111122 
SCCF RECON,ioos:station:SCCF:13:1,2009-05-02T09:00:00Z,26.5255,-82.0032,2.11,5.97,1111122 
SCCF RECON,ioos:station:SCCF:13:1,2009-05-02T10:00:00Z,26.5255,-82.0032,2.18,5.94,1111122 
SCCF RECON,ioos:station:SCCF:13:1,2009-05-02T11:00:00Z,26.5255,-82.0032,2.228,5.51,1111122 
SCCF RECON,ioos:station:SCCF:13:1,2009-05-02T12:00:00Z,26.5255,-82.0032,2.28,5.51,1111122 
SCCF RECON,ioos:station:SCCF:13:1,2009-05-02T13:00:00Z,26.5255,-82.0032,2.32,5.75,1111122 
SCCF RECON,ioos:station:SCCF:13:1,2009-05-02T14:00:00Z,26.5255,-82.0032,2.357,5.83,1111122 
SCCF RECON,ioos:station:SCCF:13:1,2009-05-02T15:00:00Z,26.5255,-82.0032,2.36,5.69,1111122 
SCCF RECON,ioos:station:SCCF:13:1,2009-05-02T16:00:00Z,26.5255,-82.0032,2.33,5.81,1111122 
SCCF RECON,ioos:station:SCCF:13:1,2009-05-02T17:00:00Z,26.5255,-82.0032,2.28,6.03,1111122 
SCCF RECON,ioos:station:SCCF:13:1,2009-05-02T18:00:00Z,26.5255,-82.0032,2.245,6.04,1111122 
SCCF RECON,ioos:station:SCCF:13:1,2009-05-02T19:00:00Z,26.5255,-82.0032,2.21,6.49,1111122 
SCCF RECON,ioos:station:SCCF:13:1,2009-05-02T20:00:00Z,26.5255,-82.0032,2.21,6.76,1111122 
SCCF RECON,ioos:station:SCCF:13:1,2009-05-02T21:00:00Z,26.5255,-82.0032,2.269,6.84,1111122 
SCCF RECON,ioos:station:SCCF:13:1,2009-05-02T22:00:00Z,26.5255,-82.0032,2.341,6.59,1111122 
SCCF RECON,ioos:station:SCCF:13:1,2009-05-02T23:00:00Z,26.5255,-82.0032,2.39,6.47,1111122 
SCCF RECON,ioos:station:SCCF:13:1,2009-05-03T00:00:00Z,26.5255,-82.0032,2.41,6.47,1111122 
SCCF RECON,ioos:station:SCCF:13:1,2009-05-03T01:00:00Z,26.5255,-82.0032,2.441,6.34,1111122 
SCCF RECON,ioos:station:SCCF:13:1,2009-05-03T02:00:00Z,26.5255,-82.0032,2.45,6.16,1111122 
SCCF RECON,ioos:station:SCCF:13:1,2009-05-03T03:00:00Z,26.5255,-82.0032,2.39,6.28,1111122 
SCCF RECON,ioos:station:SCCF:13:1,2009-05-03T04:00:00Z,26.5255,-82.0032,2.33,6.0,1111122 
SCCF RECON,ioos:station:SCCF:13:1,2009-05-03T05:00:00Z,26.5255,-82.0032,2.27,5.84,1111122 
SCCF RECON,ioos:station:SCCF:13:1,2009-05-03T06:00:00Z,26.5255,-82.0032,2.204,5.77,1111122 
SCCF RECON,ioos:station:SCCF:13:1,2009-05-03T07:00:00Z,26.5255,-82.0032,2.13,5.92,1111122 
SCCF RECON,ioos:station:SCCF:13:1,2009-05-03T08:00:00Z,26.5255,-82.0032,2.07,6.01,1111122 
SCCF RECON,ioos:station:SCCF:13:1,2009-05-03T09:00:00Z,26.5255,-82.0032,2.09,5.92,1111122 
SCCF RECON,ioos:station:SCCF:13:1,2009-05-03T10:00:00Z,26.5255,-82.0032,2.2,5.83,1111122 
SCCF RECON,ioos:station:SCCF:13:1,2009-05-03T11:00:00Z,26.5255,-82.0032,2.27,5.4,1111122 
SCCF RECON,ioos:station:SCCF:13:1,2009-05-03T12:00:00Z,26.5255,-82.0032,2.33,5.3,1111122 
SCCF RECON,ioos:station:SCCF:13:1,2009-05-03T13:00:00Z,26.5255,-82.0032,2.39,5.4,1111122 
SCCF RECON,ioos:station:SCCF:13:1,2009-05-03T14:00:00Z,26.5255,-82.0032,2.441,5.47,1111122 
SCCF RECON,ioos:station:SCCF:13:1,2009-05-03T15:00:00Z,26.5255,-82.0032,2.472,5.75,1111122 
SCCF RECON,ioos:station:SCCF:13:1,2009-05-03T16:00:00Z,26.5255,-82.0032,2.471,6.02,1111122 
SCCF RECON,ioos:station:SCCF:13:1,2009-05-03T17:00:00Z,26.5255,-82.0032,2.42,6.23,1111122 
SCCF RECON,ioos:station:SCCF:13:1,2009-05-03T18:00:00Z,26.5255,-82.0032,2.345,6.37,1111122 
SCCF RECON,ioos:station:SCCF:13:1,2009-05-03T19:00:00Z,26.5255,-82.0032,2.285,6.23,1111122 
SCCF RECON,ioos:station:SCCF:13:1,2009-05-03T20:00:00Z,26.5255,-82.0032,2.233,6.78,1111122 
SCCF RECON,ioos:station:SCCF:13:1,2009-05-03T21:00:00Z,26.5255,-82.0032,2.212,6.72,1111122 
SCCF RECON,ioos:station:SCCF:13:1,2009-05-03T22:00:00Z,26.5255,-82.0032,2.287,6.55,1111122 
SCCF RECON,ioos:station:SCCF:13:1,2009-05-03T23:00:00Z,26.5255,-82.0032,2.38,6.29,1111122 
SCCF RECON,ioos:station:SCCF:13:1,2009-05-04T00:00:00Z,26.5255,-82.0032,2.42,6.54,1111122 
SCCF RECON,ioos:station:SCCF:13:1,2009-05-04T01:00:00Z,26.5255,-82.0032,2.45,6.32,1111122 
SCCF RECON,ioos:station:SCCF:13:1,2009-05-04T02:00:00Z,26.5255,-82.0032,2.48,6.19,1111122 
SCCF RECON,ioos:station:SCCF:13:1,2009-05-04T03:00:00Z,26.5255,-82.0032,2.49,6.01,1111122 
SCCF RECON,ioos:station:SCCF:13:1,2009-05-04T04:00:00Z,26.5255,-82.0032,2.441,6.07,1111122 
SCCF RECON,ioos:station:SCCF:13:1,2009-05-04T05:00:00Z,26.5255,-82.0032,2.361,5.86,1111122 
SCCF RECON,ioos:station:SCCF:13:1,2009-05-04T06:00:00Z,26.5255,-82.0032,2.283,5.6,1111122 
SCCF RECON,ioos:station:SCCF:13:1,2009-05-04T07:00:00Z,26.5255,-82.0032,2.21,5.6,1111122 
SCCF RECON,ioos:station:SCCF:13:1,2009-05-04T08:00:00Z,26.5255,-82.0032,2.14,5.63,1111122 
SCCF RECON,ioos:station:SCCF:13:1,2009-05-04T09:00:00Z,26.5255,-82.0032,2.092,5.63,1111122 
SCCF RECON,ioos:station:SCCF:13:1,2009-05-04T10:00:00Z,26.5255,-82.0032,2.104,5.53,1111122 
SCCF RECON,ioos:station:SCCF:13:1,2009-05-04T11:00:00Z,26.5255,-82.0032,2.22,5.42,1111122 
SCCF RECON,ioos:station:SCCF:13:1,2009-05-04T12:00:00Z,26.5255,-82.0032,2.29,5.19,1111122 
SCCF RECON,ioos:station:SCCF:13:1,2009-05-04T13:00:00Z,26.5255,-82.0032,2.33,4.9,1111122 
SCCF RECON,ioos:station:SCCF:13:1,2009-05-04T14:00:00Z,26.5255,-82.0032,2.39,5.27,1111122 
SCCF RECON,ioos:station:SCCF:13:1,2009-05-04T15:00:00Z,26.5255,-82.0032,2.45,5.42,1111122 
SCCF RECON,ioos:station:SCCF:13:1,2009-05-04T16:00:00Z,26.5255,-82.0032,2.47,5.58,1111122 
SCCF RECON,ioos:station:SCCF:13:1,2009-05-04T17:00:00Z,26.5255,-82.0032,2.43,5.79,1111122 
SCCF RECON,ioos:station:SCCF:13:1,2009-05-04T18:00:00Z,26.5255,-82.0032,2.34,5.97,1111122 
SCCF RECON,ioos:station:SCCF:13:1,2009-05-04T19:00:00Z,26.5255,-82.0032,2.253,6.0,1111122 
SCCF RECON,ioos:station:SCCF:13:1,2009-05-04T20:00:00Z,26.5255,-82.0032,2.17,6.49,1111122 
SCCF RECON,ioos:station:SCCF:13:1,2009-05-04T21:00:00Z,26.5255,-82.0032,2.121,6.58,1111122 
SCCF RECON,ioos:station:SCCF:13:1,2009-05-04T22:00:00Z,26.5255,-82.0032,2.1,6.4,1111122 
SCCF RECON,ioos:station:SCCF:13:1,2009-05-04T23:00:00Z,26.5255,-82.0032,2.16,6.27,1111122 
SCCF RECON,ioos:station:SCCF:13:1,2009-05-05T00:00:00Z,26.5255,-82.0032,2.253,6.13,1111122 
SCCF RECON,ioos:station:SCCF:13:1,2009-05-05T01:00:00Z,26.5255,-82.0032,2.29,5.75,1111122 
SCCF RECON,ioos:station:SCCF:13:1,2009-05-05T02:00:00Z,26.5255,-82.0032,2.33,5.95,1111122 
SCCF RECON,ioos:station:SCCF:13:1,2009-05-05T03:00:00Z,26.5255,-82.0032,2.379,5.84,1111122 
SCCF RECON,ioos:station:SCCF:13:1,2009-05-05T04:00:00Z,26.5255,-82.0032,2.4,6.05,1111122 
SCCF RECON,ioos:station:SCCF:13:1,2009-05-05T05:00:00Z,26.5255,-82.0032,2.39,6.01,1111122 
SCCF RECON,ioos:station:SCCF:13:1,2009-05-05T06:00:00Z,26.5255,-82.0032,2.323,5.95,1111122 
SCCF RECON,ioos:station:SCCF:13:1,2009-05-05T07:00:00Z,26.5255,-82.0032,2.25,5.8,1111122 
SCCF RECON,ioos:station:SCCF:13:1,2009-05-05T08:00:00Z,26.5255,-82.0032,2.18,5.47,1111122 
SCCF RECON,ioos:station:SCCF:13:1,2009-05-05T09:00:00Z,26.5255,-82.0032,2.13,5.22,1111122 
SCCF RECON,ioos:station:SCCF:13:1,2009-05-05T10:00:00Z,26.5255,-82.0032,2.102,5.12,1111122 
SCCF RECON,ioos:station:SCCF:13:1,2009-05-05T11:00:00Z,26.5255,-82.0032,2.15,5.13,1111122 
SCCF RECON,ioos:station:SCCF:13:1,2009-05-05T12:00:00Z,26.5255,-82.0032,2.26,5.2,1111122 
SCCF RECON,ioos:station:SCCF:13:1,2009-05-05T13:00:00Z,26.5255,-82.0032,2.336,4.86,1111122 
SCCF RECON,ioos:station:SCCF:13:1,2009-05-05T14:00:00Z,26.5255,-82.0032,2.4,5.09,1111122 
SCCF RECON,ioos:station:SCCF:13:1,2009-05-05T15:00:00Z,26.5255,-82.0032,2.46,5.45,1111122 
SCCF RECON,ioos:station:SCCF:13:1,2009-05-05T16:00:00Z,26.5255,-82.0032,2.5,5.73,1111122 
SCCF RECON,ioos:station:SCCF:13:1,2009-05-05T17:00:00Z,26.5255,-82.0032,2.47,5.83,1111122 
SCCF RECON,ioos:station:SCCF:13:1,2009-05-05T18:00:00Z,26.5255,-82.0032,2.379,6.02,1111122 
SCCF RECON,ioos:station:SCCF:13:1,2009-05-05T19:00:00Z,26.5255,-82.0032,2.274,6.2,1111122 
SCCF RECON,ioos:station:SCCF:13:1,2009-05-05T20:00:00Z,26.5255,-82.0032,2.188,6.54,1111122 
SCCF RECON,ioos:station:SCCF:13:1,2009-05-05T21:00:00Z,26.5255,-82.0032,2.11,6.62,1111122 
SCCF RECON,ioos:station:SCCF:13:1,2009-05-05T22:00:00Z,26.5255,-82.0032,2.06,6.37,1111122 
SCCF RECON,ioos:station:SCCF:13:1,2009-05-05T23:00:00Z,26.5255,-82.0032,2.04,6.22,1111122 
SCCF RECON,ioos:station:SCCF:13:1,2009-05-06T00:00:00Z,26.5255,-82.0032,2.1,6.07,1111122 
SCCF RECON,ioos:station:SCCF:13:1,2009-05-06T01:00:00Z,26.5255,-82.0032,2.22,5.91,1111122 
SCCF RECON,ioos:station:SCCF:13:1,2009-05-06T02:00:00Z,26.5255,-82.0032,2.29,5.21,1111122 
SCCF RECON,ioos:station:SCCF:13:1,2009-05-06T03:00:00Z,26.5255,-82.0032,2.35,5.63,1111122 
SCCF RECON,ioos:station:SCCF:13:1,2009-05-06T04:00:00Z,26.5255,-82.0032,2.4,5.88,1111122 
SCCF RECON,ioos:station:SCCF:13:1,2009-05-06T05:00:00Z,26.5255,-82.0032,2.42,6.02,1111122 
SCCF RECON,ioos:station:SCCF:13:1,2009-05-06T06:00:00Z,26.5255,-82.0032,2.38,6.1,1111122 
SCCF RECON,ioos:station:SCCF:13:1,2009-05-06T07:00:00Z,26.5255,-82.0032,2.28,6.21,1111122 
SCCF RECON,ioos:station:SCCF:13:1,2009-05-06T08:00:00Z,26.5255,-82.0032,2.209,5.87,1111122 
SCCF RECON,ioos:station:SCCF:13:1,2009-05-06T09:00:00Z,26.5255,-82.0032,2.152,5.39,1111122 
SCCF RECON,ioos:station:SCCF:13:1,2009-05-06T10:00:00Z,26.5255,-82.0032,2.12,5.17,1111122 
SCCF RECON,ioos:station:SCCF:13:1,2009-05-06T11:00:00Z,26.5255,-82.0032,2.124,5.0,1111122 
SCCF RECON,ioos:station:SCCF:13:1,2009-05-06T12:00:00Z,26.5255,-82.0032,2.209,4.96,1111122 
SCCF RECON,ioos:station:SCCF:13:1,2009-05-06T13:00:00Z,26.5255,-82.0032,2.3,4.61,1111122 
SCCF RECON,ioos:station:SCCF:13:1,2009-05-06T14:00:00Z,26.5255,-82.0032,2.362,5.08,1111122 
SCCF RECON,ioos:station:SCCF:13:1,2009-05-06T15:00:00Z,26.5255,-82.0032,2.42,5.42,1111122 
SCCF RECON,ioos:station:SCCF:13:1,2009-05-06T16:00:00Z,26.5255,-82.0032,2.48,5.86,1111122 
SCCF RECON,ioos:station:SCCF:13:1,2009-05-06T17:00:00Z,26.5255,-82.0032,2.482,6.07,1111122 
SCCF RECON,ioos:station:SCCF:13:1,2009-05-06T18:00:00Z,26.5255,-82.0032,2.419,6.43,1111122 
SCCF RECON,ioos:station:SCCF:13:1,2009-05-06T19:00:00Z,26.5255,-82.0032,2.302,6.43,1111122 
SCCF RECON,ioos:station:SCCF:13:1,2009-05-06T20:00:00Z,26.5255,-82.0032,2.207,6.89,1111122 
SCCF RECON,ioos:station:SCCF:13:1,2009-05-06T21:00:00Z,26.5255,-82.0032,2.12,6.76,1111122 
SCCF RECON,ioos:station:SCCF:13:1,2009-05-06T22:00:00Z,26.5255,-82.0032,2.053,6.56,1111122 
SCCF RECON,ioos:station:SCCF:13:1,2009-05-06T23:00:00Z,26.5255,-82.0032,1.991,6.21,1111122 
SCCF RECON,ioos:station:SCCF:13:1,2009-05-07T00:00:00Z,26.5255,-82.0032,1.979,6.02,1111122 
SCCF RECON,ioos:station:SCCF:13:1,2009-05-07T01:00:00Z,26.5255,-82.0032,2.067,5.79,1111122 
SCCF RECON,ioos:station:SCCF:13:1,2009-05-07T02:00:00Z,26.5255,-82.0032,2.203,5.58,1111122 
SCCF RECON,ioos:station:SCCF:13:1,2009-05-07T03:00:00Z,26.5255,-82.0032,2.28,4.89,1111122 
SCCF RECON,ioos:station:SCCF:13:1,2009-05-07T04:00:00Z,26.5255,-82.0032,2.33,5.58,1111122 
SCCF RECON,ioos:station:SCCF:13:1,2009-05-07T05:00:00Z,26.5255,-82.0032,2.362,5.83,1111122 
SCCF RECON,ioos:station:SCCF:13:1,2009-05-07T06:00:00Z,26.5255,-82.0032,2.37,5.94,1111122 
SCCF RECON,ioos:station:SCCF:13:1,2009-05-07T07:00:00Z,26.5255,-82.0032,2.31,5.94,1111122 
SCCF RECON,ioos:station:SCCF:13:1,2009-05-07T08:00:00Z,26.5255,-82.0032,2.25,6.23,1111122 
SCCF RECON,ioos:station:SCCF:13:1,2009-05-07T09:00:00Z,26.5255,-82.0032,2.197,5.81,1111122 
SCCF RECON,ioos:station:SCCF:13:1,2009-05-07T10:00:00Z,26.5255,-82.0032,2.15,5.29,1111122 
SCCF RECON,ioos:station:SCCF:13:1,2009-05-07T11:00:00Z,26.5255,-82.0032,2.12,5.03,1111122 
SCCF RECON,ioos:station:SCCF:13:1,2009-05-07T12:00:00Z,26.5255,-82.0032,2.16,4.92,1111122 
SCCF RECON,ioos:station:SCCF:13:1,2009-05-07T13:00:00Z,26.5255,-82.0032,2.28,4.84,1111122 
SCCF RECON,ioos:station:SCCF:13:1,2009-05-07T14:00:00Z,26.5255,-82.0032,2.37,4.92,1111122 
SCCF RECON,ioos:station:SCCF:13:1,2009-05-07T15:00:00Z,26.5255,-82.0032,2.42,5.41,1111122 
SCCF RECON,ioos:station:SCCF:13:1,2009-05-07T16:00:00Z,26.5255,-82.0032,2.449,5.99,1111122 
SCCF RECON,ioos:station:SCCF:13:1,2009-05-07T17:00:00Z,26.5255,-82.0032,2.47,6.2,1111122 
SCCF RECON,ioos:station:SCCF:13:1,2009-05-07T18:00:00Z,26.5255,-82.0032,2.421,6.32,1111122 
SCCF RECON,ioos:station:SCCF:13:1,2009-05-07T19:00:00Z,26.5255,-82.0032,2.32,6.41,1111122 
SCCF RECON,ioos:station:SCCF:13:1,2009-05-07T20:00:00Z,26.5255,-82.0032,2.217,6.79,1111122 
SCCF RECON,ioos:station:SCCF:13:1,2009-05-07T21:00:00Z,26.5255,-82.0032,2.128,6.76,1111122 
SCCF RECON,ioos:station:SCCF:13:1,2009-05-07T22:00:00Z,26.5255,-82.0032,2.05,6.7,1111122 
SCCF RECON,ioos:station:SCCF:13:1,2009-05-07T23:00:00Z,26.5255,-82.0032,1.972,6.28,1111122 
SCCF RECON,ioos:station:SCCF:13:1,2009-05-08T00:00:00Z,26.5255,-82.0032,1.91,5.91,1111122 
SCCF RECON,ioos:station:SCCF:13:1,2009-05-08T01:00:00Z,26.5255,-82.0032,1.92,5.62,1111122 
SCCF RECON,ioos:station:SCCF:13:1,2009-05-08T02:00:00Z,26.5255,-82.0032,2.038,5.47,1111122 
SCCF RECON,ioos:station:SCCF:13:1,2009-05-08T03:00:00Z,26.5255,-82.0032,2.14,5.39,1111122 
SCCF RECON,ioos:station:SCCF:13:1,2009-05-08T04:00:00Z,26.5255,-82.0032,2.2,4.47,1111122 
SCCF RECON,ioos:station:SCCF:13:1,2009-05-08T05:00:00Z,26.5255,-82.0032,2.252,5.22,1111122 
SCCF RECON,ioos:station:SCCF:13:1,2009-05-08T06:00:00Z,26.5255,-82.0032,2.31,5.53,1111122 
SCCF RECON,ioos:station:SCCF:13:1,2009-05-08T07:00:00Z,26.5255,-82.0032,2.303,5.66,1111122 
SCCF RECON,ioos:station:SCCF:13:1,2009-05-08T08:00:00Z,26.5255,-82.0032,2.24,5.63,1111122 
SCCF RECON,ioos:station:SCCF:13:1,2009-05-08T09:00:00Z,26.5255,-82.0032,2.19,5.76,1111122 
SCCF RECON,ioos:station:SCCF:13:1,2009-05-08T10:00:00Z,26.5255,-82.0032,2.17,5.41,1111122 
SCCF RECON,ioos:station:SCCF:13:1,2009-05-08T11:00:00Z,26.5255,-82.0032,2.16,5.04,1111122 
SCCF RECON,ioos:station:SCCF:13:1,2009-05-08T12:00:00Z,26.5255,-82.0032,2.16,4.69,1111122 
SCCF RECON,ioos:station:SCCF:13:1,2009-05-08T13:00:00Z,26.5255,-82.0032,2.21,4.72,1111122 
SCCF RECON,ioos:station:SCCF:13:1,2009-05-08T14:00:00Z,26.5255,-82.0032,2.31,4.72,1111122 
SCCF RECON,ioos:station:SCCF:13:1,2009-05-08T15:00:00Z,26.5255,-82.0032,2.401,5.45,1111122 
SCCF RECON,ioos:station:SCCF:13:1,2009-05-08T16:00:00Z,26.5255,-82.0032,2.47,6.05,1111122 
SCCF RECON,ioos:station:SCCF:13:1,2009-05-08T17:00:00Z,26.5255,-82.0032,2.52,6.14,1111122 
SCCF RECON,ioos:station:SCCF:13:1,2009-05-08T18:00:00Z,26.5255,-82.0032,2.513,6.49,1111122 
SCCF RECON,ioos:station:SCCF:13:1,2009-05-08T19:00:00Z,26.5255,-82.0032,2.42,6.8,1111122 
SCCF RECON,ioos:station:SCCF:13:1,2009-05-08T20:00:00Z,26.5255,-82.0032,2.319,6.87,1111122 
SCCF RECON,ioos:station:SCCF:13:1,2009-05-08T21:00:00Z,26.5255,-82.0032,2.22,7.09,1111122 
SCCF RECON,ioos:station:SCCF:13:1,2009-05-08T22:00:00Z,26.5255,-82.0032,2.137,6.83,1111122 
SCCF RECON,ioos:station:SCCF:13:1,2009-05-08T23:00:00Z,26.5255,-82.0032,2.06,6.53,1111122 
SCCF RECON,ioos:station:SCCF:13:1,2009-05-09T00:00:00Z,26.5255,-82.0032,1.99,6.19,1111122 
SCCF RECON,ioos:station:SCCF:13:1,2009-05-09T01:00:00Z,26.5255,-82.0032,1.95,5.85,1111122 
SCCF RECON,ioos:station:SCCF:13:1,2009-05-09T02:00:00Z,26.5255,-82.0032,1.98,5.56,1111122 
SCCF RECON,ioos:station:SCCF:13:1,2009-05-09T03:00:00Z,26.5255,-82.0032,2.1,5.34,1111122 
SCCF RECON,ioos:station:SCCF:13:1,2009-05-09T04:00:00Z,26.5255,-82.0032,2.2,5.07,1111122 
SCCF RECON,ioos:station:SCCF:13:1,2009-05-09T05:00:00Z,26.5255,-82.0032,2.26,5.11,1111122 
SCCF RECON,ioos:station:SCCF:13:1,2009-05-09T06:00:00Z,26.5255,-82.0032,2.3,5.29,1111122 
SCCF RECON,ioos:station:SCCF:13:1,2009-05-09T07:00:00Z,26.5255,-82.0032,2.329,5.55,1111122 
SCCF RECON,ioos:station:SCCF:13:1,2009-05-09T08:00:00Z,26.5255,-82.0032,2.32,5.42,1111122 
SCCF RECON,ioos:station:SCCF:13:1,2009-05-09T09:00:00Z,26.5255,-82.0032,2.29,5.47,1111122 
SCCF RECON,ioos:station:SCCF:13:1,2009-05-09T10:00:00Z,26.5255,-82.0032,2.27,5.49,1111122 
SCCF RECON,ioos:station:SCCF:13:1,2009-05-09T11:00:00Z,26.5255,-82.0032,2.25,5.54,1111122 
SCCF RECON,ioos:station:SCCF:13:1,2009-05-09T12:00:00Z,26.5255,-82.0032,2.251,5.15,1111122 
SCCF RECON,ioos:station:SCCF:13:1,2009-05-09T13:00:00Z,26.5255,-82.0032,2.299,5.08,1111122 
SCCF RECON,ioos:station:SCCF:13:1,2009-05-09T14:00:00Z,26.5255,-82.0032,2.373,5.08,1111122 
SCCF RECON,ioos:station:SCCF:13:1,2009-05-09T15:00:00Z,26.5255,-82.0032,2.468,5.56,1111122 
SCCF RECON,ioos:station:SCCF:13:1,2009-05-09T16:00:00Z,26.5255,-82.0032,2.527,6.27,1111122 
SCCF RECON,ioos:station:SCCF:13:1,2009-05-09T17:00:00Z,26.5255,-82.0032,2.572,6.13,1111122 
SCCF RECON,ioos:station:SCCF:13:1,2009-05-09T18:00:00Z,26.5255,-82.0032,2.572,6.42,1111122 
SCCF RECON,ioos:station:SCCF:13:1,2009-05-09T19:00:00Z,26.5255,-82.0032,2.512,6.74,1111122 
SCCF RECON,ioos:station:SCCF:13:1,2009-05-09T20:00:00Z,26.5255,-82.0032,2.398,6.78,1111122 
SCCF RECON,ioos:station:SCCF:13:1,2009-05-09T21:00:00Z,26.5255,-82.0032,2.29,6.98,1111122 
SCCF RECON,ioos:station:SCCF:13:1,2009-05-09T22:00:00Z,26.5255,-82.0032,2.204,6.77,1111122 
SCCF RECON,ioos:station:SCCF:13:1,2009-05-09T23:00:00Z,26.5255,-82.0032,2.12,6.62,1111122 
SCCF RECON,ioos:station:SCCF:13:1,2009-05-10T00:00:00Z,26.5255,-82.0032,2.039,6.23,1111122 
SCCF RECON,ioos:station:SCCF:13:1,2009-05-10T01:00:00Z,26.5255,-82.0032,1.97,5.79,1111122 
SCCF RECON,ioos:station:SCCF:13:1,2009-05-10T02:00:00Z,26.5255,-82.0032,1.937,5.53,1111122 
SCCF RECON,ioos:station:SCCF:13:1,2009-05-10T03:00:00Z,26.5255,-82.0032,1.982,5.24,1111122 
SCCF RECON,ioos:station:SCCF:13:1,2009-05-10T04:00:00Z,26.5255,-82.0032,2.11,5.1,1111122 
SCCF RECON,ioos:station:SCCF:13:1,2009-05-10T05:00:00Z,26.5255,-82.0032,2.2,4.87,1111122 
SCCF RECON,ioos:station:SCCF:13:1,2009-05-10T06:00:00Z,26.5255,-82.0032,2.24,4.56,1111122 
SCCF RECON,ioos:station:SCCF:13:1,2009-05-10T07:00:00Z,26.5255,-82.0032,2.264,5.01,1111122 
SCCF RECON,ioos:station:SCCF:13:1,2009-05-10T08:00:00Z,26.5255,-82.0032,2.28,5.2,1111122 
SCCF RECON,ioos:station:SCCF:13:1,2009-05-10T09:00:00Z,26.5255,-82.0032,2.26,5.17,1111122 
SCCF RECON,ioos:station:SCCF:13:1,2009-05-10T10:00:00Z,26.5255,-82.0032,2.22,5.06,1111122 
SCCF RECON,ioos:station:SCCF:13:1,2009-05-10T11:00:00Z,26.5255,-82.0032,2.217,4.93,1111122 
SCCF RECON,ioos:station:SCCF:13:1,2009-05-10T12:00:00Z,26.5255,-82.0032,2.194,4.78,1111122 
SCCF RECON,ioos:station:SCCF:13:1,2009-05-10T13:00:00Z,26.5255,-82.0032,2.182,4.45,1111122 
SCCF RECON,ioos:station:SCCF:13:1,2009-05-10T14:00:00Z,26.5255,-82.0032,2.23,4.46,1111122 
SCCF RECON,ioos:station:SCCF:13:1,2009-05-10T15:00:00Z,26.5255,-82.0032,2.333,4.31,1111122 
SCCF RECON,ioos:station:SCCF:13:1,2009-05-10T16:00:00Z,26.5255,-82.0032,2.418,5.21,1111122 
SCCF RECON,ioos:station:SCCF:13:1,2009-05-10T17:00:00Z,26.5255,-82.0032,2.461,5.93,1111122 
SCCF RECON,ioos:station:SCCF:13:1,2009-05-10T18:00:00Z,26.5255,-82.0032,2.49,6.11,1111122 
SCCF RECON,ioos:station:SCCF:13:1,2009-05-10T19:00:00Z,26.5255,-82.0032,2.486,6.46,1111122 
SCCF RECON,ioos:station:SCCF:13:1,2009-05-10T20:00:00Z,26.5255,-82.0032,2.39,6.62,1111122 
SCCF RECON,ioos:station:SCCF:13:1,2009-05-10T21:00:00Z,26.5255,-82.0032,2.284,6.58,1111122 
SCCF RECON,ioos:station:SCCF:13:1,2009-05-10T22:00:00Z,26.5255,-82.0032,2.204,6.8,1111122 
SCCF RECON,ioos:station:SCCF:13:1,2009-05-10T23:00:00Z,26.5255,-82.0032,2.128,6.37,1111122 
SCCF RECON,ioos:station:SCCF:13:1,2009-05-11T00:00:00Z,26.5255,-82.0032,2.04,6.05,1111122 
SCCF RECON,ioos:station:SCCF:13:1,2009-05-11T01:00:00Z,26.5255,-82.0032,1.96,5.73,1111122 
SCCF RECON,ioos:station:SCCF:13:1,2009-05-11T02:00:00Z,26.5255,-82.0032,1.91,5.52,1111122 
SCCF RECON,ioos:station:SCCF:13:1,2009-05-11T03:00:00Z,26.5255,-82.0032,1.916,5.31,1111122 
SCCF RECON,ioos:station:SCCF:13:1,2009-05-11T04:00:00Z,26.5255,-82.0032,2.03,5.15,1111122 
SCCF RECON,ioos:station:SCCF:13:1,2009-05-11T05:00:00Z,26.5255,-82.0032,2.12,5.07,1111122 
SCCF RECON,ioos:station:SCCF:13:1,2009-05-11T06:00:00Z,26.5255,-82.0032,2.17,4.48,1111122 
SCCF RECON,ioos:station:SCCF:13:1,2009-05-11T07:00:00Z,26.5255,-82.0032,2.219,4.73,1111122 
SCCF RECON,ioos:station:SCCF:13:1,2009-05-11T08:00:00Z,26.5255,-82.0032,2.25,4.83,1111122 
SCCF RECON,ioos:station:SCCF:13:1,2009-05-11T09:00:00Z,26.5255,-82.0032,2.26,4.96,1111122 
SCCF RECON,ioos:station:SCCF:13:1,2009-05-11T10:00:00Z,26.5255,-82.0032,2.24,4.84,1111122 
SCCF RECON,ioos:station:SCCF:13:1,2009-05-11T11:00:00Z,26.5255,-82.0032,2.2,4.76,1111122 
SCCF RECON,ioos:station:SCCF:13:1,2009-05-11T12:00:00Z,26.5255,-82.0032,2.18,4.64,1111122 
SCCF RECON,ioos:station:SCCF:13:1,2009-05-11T13:00:00Z,26.5255,-82.0032,2.16,4.62,1111122 
SCCF RECON,ioos:station:SCCF:13:1,2009-05-11T14:00:00Z,26.5255,-82.0032,2.24,4.57,1111122 
SCCF RECON,ioos:station:SCCF:13:1,2009-05-11T15:00:00Z,26.5255,-82.0032,2.331,4.72,1111122 
SCCF RECON,ioos:station:SCCF:13:1,2009-05-11T16:00:00Z,26.5255,-82.0032,2.39,5.31,1111122 
SCCF RECON,ioos:station:SCCF:13:1,2009-05-11T17:00:00Z,26.5255,-82.0032,2.45,5.97,1111122 
SCCF RECON,ioos:station:SCCF:13:1,2009-05-11T18:00:00Z,26.5255,-82.0032,2.5,6.05,1111122 
SCCF RECON,ioos:station:SCCF:13:1,2009-05-11T19:00:00Z,26.5255,-82.0032,2.496,6.42,1111122 
SCCF RECON,ioos:station:SCCF:13:1,2009-05-11T20:00:00Z,26.5255,-82.0032,2.44,6.67,1111122 